Location: Sternwarte_Laufen
(47.9344°N, 12.9346°E)
Time: 21:14:17
(UTC+01:00)

ISS - Pass Details

Date: 13 January 2018
Orbit: 402 x 407 km, 51.6° (Epoch: 17 January)

Event Time Altitude Azimuth Distance (km) Brightness Sun altitude
Exits shadow 07:06:45 - 267° (W) 1,596 -1.4 -7.9°
Reaches altitude 10° 07:07:15 10° 260° (W) 1,464 -1.5 -7.8°
Maximum altitude 07:09:11 15° 224° (SW) 1,202 -1.6 -7.5°
Drops below altitude 10° 07:11:08 10° 187° (S) 1,460 -0.8 -7.2°
Sets 07:13:50 0° 163° (SSE) 2,315 0.7 -6.8°
